User: anonymous   Login
Location: Nairn
(57.5833°N, 3.8667°W)
Time: 22:24:14
(UTC+00:00)
Language:

Cosmos 1782 Rocket - Orbit

View from above orbital plane
View from above orbital plane
View from above satellite
View from above satellite

Ground track
Ground track

The orbit data is extracted from the following two-line orbital elements,

1 16987U 86074B   21209.91677715  .00000092  00000-0  83189-5 0  9998
2 16987  82.5183 342.9496 0017977 354.5565 126.9315 14.83119447860082
Epoch (UTC): 28 July 2021 22:00:09
Eccentricity: 0.0017977
inclination: 82.5183°
perigee height: 607 km
apogee height: 632 km
right ascension of ascending node: 342.9496°
argument of perigee: 354.5565°
revolutions per day: 14.83119447
mean anomaly at epoch: 126.9315°
orbit number at epoch: 86008

The dashed part of the orbit path shows where the satellite is in the earth's shadow,  

DLR